スペースウォッチ彗星

361P/Spacewatch (2018)

English version
Home page
Updated on March 16, 2018

---------------------------------------------------------------------

・ プロフィール

符号 361P/2017 S4
検出日 2017年9月24日
検出光度 18.9等
検出者 Pan-STARRS 1 telescope (Haleakala)

・ 写真集

・ 軌道要素

Epoch 2018 July 21.0 TT = JDT 2458320.5
T 2018 July 2.49125 TT                                  MPCW
q   2.7803961            (2000.0)            P               Q
n   0.08960823     Peri.  219.20737     +0.46928068     -0.87794404
a   4.9458103      Node   203.27742     +0.85847142     +0.47873791
e   0.4378280      Incl.   13.88222     +0.20688756     +0.00492715
P  11.00
From 207 observations 2006 Oct. 11-2018 Jan. 27, mean residual 0".5.

・ 光度変化

        m1 = 11.0 + 5 logΔ + 10.0 log r

---------------------------------------------------------------------

軌道要素はM.P.E.C. 2018-B155に掲載されたものです。
光度グラフはComet for Windowsで作成したものです。

---------------------------------------------------------------------

Copyright(C) Seiichi Yoshida (comet@aerith.net). All rights reserved.